TITAN 3C TRANSTAGE DEB, 38702

Orbit data source: Space-Track

TITAN 3C TRANSTAGE DEB, 38702 is space debris in GEO originally from a launch on Thu, 26 Sep 1968 UTC launched from the Air Force Eastern Test Range (AFETR). Debris objects in space refer to the collection of defunct objects orbiting the Earth. Examples of debris include non-operational satellites, rocket bodies, and fragments generated from explosions, collisions, or faulty payload assembly.

Not visible in the next 10 days
Identifier
38702, 1968-081AC
Orbit
GEO
Last TLE update
1 day ago
Origin
Manufacturer
Unknown
Mission
Spacecraft
Bus & Motor
Unknown
Mass
Unknown
Launch date (UTC)
1968-09-26 (57 years ago)
Launch vehicle
Unknown
Launch site
Air Force Eastern Test Range (AFETR)
Object type
Payload
Rocket body
Debris
Shape & HBR
Unknown
Radar Cross Section
Small (<0.1 m²)

Expand to show TLE details & history

TLE from 1 day ago
0 TITAN 3C TRANSTAGE DEB
1 38702U 68081AC  25198.91520929 -.00000316  00000-0  00000-0 0  9996
2 38702   0.6777   5.4076 0230413  76.9146 280.2910  1.02226431 66305
Epoch: 2025-07-17T21:57Z
TLE epoch observation values (Epoch: 2025-07-17T21:57:54.082Z)
Latitude
-0.07583°
Longitude
94.55088°
Altitude
35,100.015 km
Speed
3.106 km/s
True Right ascension
00h 00m 00s
True Declination
0° 04' 33"
Sunlit
Object was in daylight at epoch
Visualization orbit readout
Latitude
0.68834°
Longitude
-161.82531°
Altitude
34,347.353 km
Speed
3.162 km/s
Apparent Right ascension
06h 41m 14s
Apparent Declination
-4° 33' 22"
Sunlit
Object is in daylight
Visualization observer readout
Local Sidereal Time
16:46:24
Azimuth
316.243° NNW
Elevation
-46.183°
Doppler factor
1
Orbital elements
Apogee altitude
36,207.602 km
Perigee altitude
34,289.34 km
Semi-major axis
41,626.608 km
Eccentricity
0.02304
Inclination
0.6777°
RAAN
5.4076°
Arg. of periapsis
76.9146°
True anomaly
277.68061°
Mean anomaly
280.291°
Eccentric anomaly
278.98704°
Mean motion
0.25556 °/min
Orbital period
1,408.69 mins
BSTAR
0
Loading maneuver chart data...
Loading SW <> Apogee altitude chart data...
|